Вернуться в каталог

STARLINK-31810

АктивенСвязьVLEO
NORAD 59799·PAYLOAD·🇺🇸 United States

Запущен May 18, 2024 с Cape Canaveral Space Force Station

Loading…

Ближайшие Пролёты (ближайшие 24 часа)

TLE

СвежийSource: CelesTrak SupGP

Эпоха: Sep 15, 2026, 02:03 UTC

1 59799C 24093T   26258.08590278 -.00036784  00000+0 -13324-2 0  2581
2 59799  42.9996 219.4750 0001177 267.4444 280.9383 15.27595347    17

Отслеживайте STARLINK-31810 в реальном времени с AllMySat

Download on the App Store